No particular awareness of the weather is required.    There are no Weather-warnings


Meteo18 Weather Cam more information Meteo18 Weather Cam


Thunder radar more information blitzortung!


Rain radar more information rain snow radar


Visit our other weather sites:

Template documentation
and downloads

And another site



Weather Underground History page Text

Daily Summary for February 15, 2017 Units:  English    Metric   Both
« Previous Day
Next Day »
Daily Weekly Monthly Yearly Custom
  High: Low: Average:
Temperature: 63.3 °F 43.9 °F 52.2 °F
Dew Point: 48.9 °F 39.9 °F 43.9 °F
Humidity: 89 % 53 % 75 %
Wind Speed: 7 mph 0 mph 1 mph
Wind Gust: 10 mph - -
Wind:- - SSW
Pressure: 30.5 in 30.4 in -
Precipitation: 0 in    
Historical Graphs
 
 
Tabular Data for February 15, 2017
Time Temperature Dew Point Pressure Wind Wind Speed Wind Gust Humidity Rainfall Rate (Hourly)
00:02 48.6 °F 42.6 °F 30.4 in Calm   4 mph 80 % 0 in
00:07 48.6 °F 42.6 °F 30.4 in Calm   4 mph 80 % 0 in
00:12 48.6 °F 43 °F 30.4 in SE 1 mph   81 % 0 in
00:17 48.9 °F 43 °F 30.4 in SSE 1 mph   80 % 0 in
00:22 48.9 °F 43 °F 30.4 in SSE 1 mph 2 mph 80 % 0 in
00:27 48.9 °F 42.6 °F 30.4 in Calm   2 mph 79 % 0 in
00:32 49.1 °F 42.8 °F 30.4 in Calm   3 mph 79 % 0 in
00:37 49.3 °F 43 °F 30.4 in Calm   3 mph 79 % 0 in
00:42 49.3 °F 43 °F 30.4 in Calm   3 mph 79 % 0 in
00:47 48.9 °F 43 °F 30.4 in Calm   3 mph 80 % 0 in
00:52 48.9 °F 43 °F 30.4 in Calm     80 % 0 in
00:57 48.9 °F 42.6 °F 30.4 in Calm     79 % 0 in
01:02 48.9 °F 42.6 °F 30.4 in Calm   1 mph 79 % 0 in
01:07 48.7 °F 42.8 °F 30.4 in Calm   1 mph 80 % 0 in
01:12 48.6 °F 42.6 °F 30.4 in SE 2 mph 2 mph 80 % 0 in
01:17 48.7 °F 42.8 °F 30.4 in Calm   3 mph 80 % 0 in
01:22 48.7 °F 42.8 °F 30.4 in South 1 mph 3 mph 80 % 0 in
01:27 48.7 °F 42.8 °F 30.4 in Calm   3 mph 80 % 0 in
01:37 48.7 °F 42.8 °F 30.4 in Calm   2 mph 80 % 0 in
01:42 48.7 °F 42.8 °F 30.4 in ESE 1 mph 2 mph 80 % 0 in
01:47 48.7 °F 42.4 °F 30.4 in Calm   2 mph 79 % 0 in
01:57 48.6 °F 42.3 °F 30.4 in Calm   3 mph 79 % 0 in
02:02 48.6 °F 42.6 °F 30.4 in Calm   3 mph 80 % 0 in
02:12 48.2 °F 42.3 °F 30.4 in Calm   3 mph 80 % 0 in
02:17 48 °F 42.1 °F 30.4 in Calm   3 mph 80 % 0 in
02:22 48 °F 42.1 °F 30.4 in Calm   3 mph 80 % 0 in
02:32 48 °F 42.1 °F 30.4 in Calm   3 mph 80 % 0 in
02:42 47.8 °F 41.9 °F 30.4 in SW 1 mph 4 mph 80 % 0 in
02:52 47.1 °F 41.9 °F 30.4 in SW 2 mph 3 mph 82 % 0 in
03:02 47.7 °F 42.1 °F 30.4 in WSW 2 mph 4 mph 81 % 0 in
03:12 48 °F 42.1 °F 30.4 in SSE 2 mph 5 mph 80 % 0 in
03:17 48.2 °F 42.3 °F 30.4 in Calm   7 mph 80 % 0 in
03:22 48.4 °F 42.3 °F 30.4 in SSE 3 mph 7 mph 79 % 0 in
03:27 48 °F 42.1 °F 30.4 in Calm   7 mph 80 % 0 in
03:32 47.8 °F 41.9 °F 30.4 in SSW 1 mph 6 mph 80 % 0 in
03:42 47.5 °F 41.9 °F 30.4 in SW 1 mph 3 mph 81 % 0 in
03:52 47.3 °F 41.7 °F 30.4 in Calm   2 mph 81 % 0 in
03:57 47.1 °F 41.5 °F 30.4 in Calm   2 mph 81 % 0 in
04:02 46.9 °F 41.4 °F 30.4 in Calm   2 mph 81 % 0 in
04:12 46.8 °F 41.5 °F 30.4 in Calm   1 mph 82 % 0 in
04:17 46.8 °F 41.5 °F 30.4 in Calm   1 mph 82 % 0 in
04:22 46.9 °F 41.7 °F 30.4 in Calm   1 mph 82 % 0 in
04:27 46.6 °F 41.7 °F 30.4 in Calm   1 mph 83 % 0 in
04:32 46.2 °F 41.7 °F 30.4 in Calm     84 % 0 in
04:37 46.2 °F 41.7 °F 30.4 in Calm   2 mph 84 % 0 in
04:42 46.8 °F 41.9 °F 30.4 in Calm   2 mph 83 % 0 in
04:47 46.8 °F 41.5 °F 30.4 in Calm   2 mph 82 % 0 in
04:52 46.9 °F 41.7 °F 30.5 in Calm   2 mph 82 % 0 in
04:57 46.9 °F 41.7 °F 30.5 in SE 1 mph 2 mph 82 % 0 in
05:02 46.9 °F 41.7 °F 30.5 in Calm   2 mph 82 % 0 in
05:12 46.9 °F 41.7 °F 30.5 in Calm   2 mph 82 % 0 in
05:22 46.8 °F 41.5 °F 30.5 in Calm   2 mph 82 % 0 in
05:32 46.6 °F 41.4 °F 30.5 in Calm     82 % 0 in
05:42 46.6 °F 41.4 °F 30.5 in Calm     82 % 0 in
05:52 45.9 °F 41.4 °F 30.5 in Calm     84 % 0 in
05:57 46 °F 41.2 °F 30.5 in Calm   3 mph 83 % 0 in
06:02 46.2 °F 41.4 °F 30.5 in Calm   3 mph 83 % 0 in
06:12 46.2 °F 41 °F 30.5 in SSE 1 mph 3 mph 82 % 0 in
06:17 46.6 °F 41.4 °F 30.5 in Calm   3 mph 82 % 0 in
06:22 46.6 °F 41.4 °F 30.5 in SSE 1 mph 3 mph 82 % 0 in
06:32 46.2 °F 41 °F 30.5 in Calm   3 mph 82 % 0 in
06:42 46.6 °F 41.4 °F 30.5 in SW 1 mph 2 mph 82 % 0 in
06:52 46.6 °F 41.4 °F 30.5 in SSE 1 mph 2 mph 82 % 0 in
06:57 46.2 °F 41 °F 30.5 in Calm   2 mph 82 % 0 in
07:02 46 °F 41.2 °F 30.5 in Calm   2 mph 83 % 0 in
07:12 46 °F 41.2 °F 30.5 in Calm   1 mph 83 % 0 in
07:17 46 °F 41.2 °F 30.5 in Calm   2 mph 83 % 0 in
07:22 45.9 °F 41 °F 30.5 in Calm   2 mph 83 % 0 in
07:32 45.7 °F 40.8 °F 30.5 in Calm   2 mph 83 % 0 in
07:42 45.7 °F 41.2 °F 30.5 in Calm   1 mph 84 % 0 in
07:47 45.5 °F 41 °F 30.5 in Calm   1 mph 84 % 0 in
07:52 45.3 °F 40.8 °F 30.5 in Calm   1 mph 84 % 0 in
07:57 45.1 °F 40.6 °F 30.5 in Calm     84 % 0 in
08:02 45 °F 40.5 °F 30.5 in Calm     84 % 0 in
08:07 44.8 °F 40.5 °F 30.5 in Calm     85 % 0 in
08:12 44.8 °F 40.8 °F 30.5 in Calm     86 % 0 in
08:22 44.8 °F 40.5 °F 30.5 in Calm     85 % 0 in
08:32 44.8 °F 40.8 °F 30.5 in Calm     86 % 0 in
08:42 43.9 °F 39.9 °F 30.5 in Calm     86 % 0 in
08:52 44.8 °F 40.8 °F 30.5 in Calm     86 % 0 in
09:02 45.9 °F 41.4 °F 30.5 in Calm     84 % 0 in
09:12 46.6 °F 41.7 °F 30.5 in Calm     83 % 0 in
09:17 47.7 °F 43 °F 30.5 in Calm     84 % 0 in
09:22 48.7 °F 42.8 °F 30.5 in Calm     80 % 0 in
09:32 49.3 °F 42.8 °F 30.5 in Calm     78 % 0 in
09:42 49.8 °F 43 °F 30.5 in Calm     77 % 0 in
09:47 50.4 °F 43.2 °F 30.5 in Calm     76 % 0 in
09:52 49.5 °F 42.3 °F 30.5 in SW 1 mph   76 % 0 in
09:57 49.5 °F 42.8 °F 30.5 in Calm   2 mph 78 % 0 in
10:02 49.8 °F 43 °F 30.5 in Calm   2 mph 77 % 0 in
10:12 50.4 °F 43.2 °F 30.5 in Calm   2 mph 76 % 0 in
10:17 50.2 °F 43.3 °F 30.5 in SSW 1 mph 2 mph 77 % 0 in
10:22 50.7 °F 44.1 °F 30.5 in SW 1 mph 2 mph 78 % 0 in
10:32 50.9 °F 43.5 °F 30.5 in SE 2 mph 4 mph 76 % 0 in
10:42 51.8 °F 44.1 °F 30.5 in South 2 mph 4 mph 75 % 0 in
10:47 52.2 °F 44.4 °F 30.5 in SSE 1 mph 3 mph 75 % 0 in
10:52 52.5 °F 44.4 °F 30.5 in SSW 2 mph 3 mph 74 % 0 in
11:02 53.2 °F 45.5 °F 30.5 in SSE 2 mph 3 mph 75 % 0 in
11:12 54 °F 45.1 °F 30.5 in ESE 3 mph 5 mph 72 % 0 in
11:22 54.9 °F 46 °F 30.5 in SE 3 mph 4 mph 72 % 0 in
11:32 55.8 °F 46.6 °F 30.5 in SSE 3 mph 5 mph 71 % 0 in
11:42 56.1 °F 46.4 °F 30.5 in SE 4 mph 5 mph 70 % 0 in
11:52 56.8 °F 47.1 °F 30.5 in SSE 2 mph 6 mph 70 % 0 in
11:57 57 °F 46.6 °F 30.5 in South 3 mph 7 mph 68 % 0 in
12:02 57 °F 46.2 °F 30.5 in SSE 5 mph 7 mph 67 % 0 in
12:12 57.4 °F 46.9 °F 30.5 in South 6 mph 8 mph 68 % 0 in
12:17 57.4 °F 46.6 °F 30.5 in South 4 mph 8 mph 67 % 0 in
12:22 57.4 °F 47.7 °F 30.5 in SSE 3 mph 8 mph 70 % 0 in
12:32 57.6 °F 47.8 °F 30.5 in South 3 mph 9 mph 70 % 0 in
12:42 57.7 °F 46.9 °F 30.5 in SSE 2 mph 10 mph 67 % 0 in
12:52 58.5 °F 47.5 °F 30.5 in South 4 mph 8 mph 67 % 0 in
12:57 58.6 °F 47.7 °F 30.5 in SSE 2 mph 8 mph 67 % 0 in
13:02 58.6 °F 47.7 °F 30.5 in SSW 4 mph 8 mph 67 % 0 in
13:12 59 °F 47.3 °F 30.5 in SSW 1 mph 9 mph 65 % 0 in
13:17 59.2 °F 47.5 °F 30.5 in SSW 1 mph 9 mph 65 % 0 in
13:22 59.5 °F 47.3 °F 30.5 in SE 3 mph 9 mph 64 % 0 in
13:32 59.5 °F 48.2 °F 30.5 in SSW 4 mph 6 mph 66 % 0 in
13:42 60.1 °F 47.5 °F 30.5 in South 2 mph 6 mph 63 % 0 in
13:52 60.4 °F 48.2 °F 30.5 in SSE 3 mph 5 mph 64 % 0 in
14:02 60.1 °F 47.8 °F 30.5 in SSW 1 mph 5 mph 64 % 0 in
14:12 60.1 °F 47.8 °F 30.5 in SSE 2 mph 6 mph 64 % 0 in
14:17 60.3 °F 47.1 °F 30.5 in SE 2 mph 6 mph 62 % 0 in
14:22 60.4 °F 47.8 °F 30.5 in SE 3 mph 6 mph 63 % 0 in
14:32 61 °F 48.4 °F 30.5 in South 3 mph 7 mph 63 % 0 in
14:37 61 °F 47.5 °F 30.5 in SSW 2 mph 7 mph 61 % 0 in
14:42 60.8 °F 48.2 °F 30.5 in SE 3 mph 7 mph 63 % 0 in
14:47 61.2 °F 48 °F 30.5 in SSW 1 mph 7 mph 62 % 0 in
14:52 61.3 °F 47.8 °F 30.5 in SSE 2 mph 7 mph 61 % 0 in
15:02 61.5 °F 48.4 °F 30.5 in SE 2 mph 7 mph 62 % 0 in
15:07 61.7 °F 48.2 °F 30.5 in South 3 mph 7 mph 61 % 0 in
15:12 61.9 °F 47.8 °F 30.5 in SW 4 mph 7 mph 60 % 0 in
15:17 61.5 °F 47.5 °F 30.5 in SE 3 mph 9 mph 60 % 0 in
15:22 61.9 °F 48.2 °F 30.5 in SW 5 mph 9 mph 61 % 0 in
15:32 62.2 °F 47.3 °F 30.5 in SSW 2 mph 9 mph 58 % 0 in
15:42 62.4 °F 47.5 °F 30.5 in SSE 2 mph 7 mph 58 % 0 in
15:47 62.6 °F 48.9 °F 30.5 in SSW 3 mph 6 mph 61 % 0 in
15:52 62.8 °F 47.8 °F 30.5 in SSW 7 mph 7 mph 58 % 0 in
15:57 62.8 °F 47.3 °F 30.5 in SW 3 mph 7 mph 57 % 0 in
16:02 62.8 °F 47.3 °F 30.5 in SW 4 mph 7 mph 57 % 0 in
16:07 63 °F 48 °F 30.5 in SSW 3 mph 7 mph 58 % 0 in
16:12 62.6 °F 46.2 °F 30.5 in SE 4 mph 7 mph 55 % 0 in
16:17 62.4 °F 47.8 °F 30.5 in South 2 mph 8 mph 59 % 0 in
16:22 62.8 °F 46.9 °F 30.5 in SE 1 mph 8 mph 56 % 0 in
16:27 63 °F 48 °F 30.5 in South 3 mph 6 mph 58 % 0 in
16:37 63.1 °F 46.8 °F 30.5 in SE 4 mph 7 mph 55 % 0 in
16:42 63.1 °F 46.8 °F 30.5 in South 2 mph 7 mph 55 % 0 in
16:47 63.3 °F 46.4 °F 30.5 in SSE 1 mph 7 mph 54 % 0 in
16:52 63.1 °F 47.1 °F 30.5 in South 3 mph 4 mph 56 % 0 in
16:57 63 °F 47.5 °F 30.5 in SSE 2 mph 5 mph 57 % 0 in
17:02 62.8 °F 47.3 °F 30.5 in SSE 2 mph 5 mph 57 % 0 in
17:12 62.8 °F 46.4 °F 30.5 in SE 1 mph 5 mph 55 % 0 in
17:17 62.8 °F 46.9 °F 30.5 in SE 1 mph 5 mph 56 % 0 in
17:22 63 °F 45.5 °F 30.5 in SSE 1 mph 5 mph 53 % 0 in
17:32 62.6 °F 46.8 °F 30.5 in SW 1 mph 3 mph 56 % 0 in
17:42 61.3 °F 46.4 °F 30.5 in SSE 1 mph 2 mph 58 % 0 in
17:47 60.4 °F 46 °F 30.5 in Calm   2 mph 59 % 0 in
17:52 59.9 °F 46 °F 30.5 in Calm   2 mph 60 % 0 in
17:57 59.5 °F 46 °F 30.5 in Calm   1 mph 61 % 0 in
18:02 59.2 °F 45.7 °F 30.5 in Calm   1 mph 61 % 0 in
18:12 58.1 °F 45.1 °F 30.5 in Calm     62 % 0 in
18:17 57.6 °F 45.5 °F 30.5 in Calm     64 % 0 in
18:22 57.2 °F 45.5 °F 30.5 in Calm     65 % 0 in
18:32 56.3 °F 44.6 °F 30.5 in Calm     65 % 0 in
18:42 55.2 °F 44.4 °F 30.5 in Calm     67 % 0 in
18:47 55 °F 44.6 °F 30.5 in Calm     68 % 0 in
18:52 54.7 °F 44.8 °F 30.5 in Calm     69 % 0 in
19:02 54.3 °F 44.8 °F 30.5 in Calm   1 mph 70 % 0 in
19:12 53.4 °F 44.2 °F 30.5 in WNW 1 mph 2 mph 71 % 0 in
19:17 54 °F 44.4 °F 30.5 in WNW 1 mph 2 mph 70 % 0 in
19:22 54 °F 44.1 °F 30.5 in WNW 1 mph 2 mph 69 % 0 in
19:32 53.8 °F 44.6 °F 30.5 in Calm   2 mph 71 % 0 in
19:42 53.8 °F 44.6 °F 30.5 in NNE 1 mph 2 mph 71 % 0 in
19:47 53.6 °F 44.4 °F 30.5 in NNE 1 mph 1 mph 71 % 0 in
19:52 53.1 °F 44.2 °F 30.5 in Calm   1 mph 72 % 0 in
19:57 52.2 °F 44.1 °F 30.5 in Calm   1 mph 74 % 0 in
20:02 52 °F 44.2 °F 30.5 in Calm   1 mph 75 % 0 in
20:07 52 °F 43.9 °F 30.5 in Calm   1 mph 74 % 0 in
20:12 51.6 °F 43.5 °F 30.5 in NW 1 mph 1 mph 74 % 0 in
20:22 51.4 °F 44.1 °F 30.5 in NW 1 mph 1 mph 76 % 0 in
20:32 52 °F 44.2 °F 30.5 in Calm   1 mph 75 % 0 in
20:42 50.7 °F 43.5 °F 30.5 in NW 1 mph 1 mph 76 % 0 in
20:52 50.5 °F 43.9 °F 30.5 in Calm   1 mph 78 % 0 in
20:57 50.5 °F 43.9 °F 30.5 in Calm   1 mph 78 % 0 in
21:02 50.4 °F 43.7 °F 30.5 in North 1 mph 1 mph 78 % 0 in
21:12 49.5 °F 43.5 °F 30.5 in NW 1 mph 1 mph 80 % 0 in
21:17 49.5 °F 43.5 °F 30.5 in NW 1 mph 2 mph 80 % 0 in
21:22 50.2 °F 43.9 °F 30.5 in NNW 3 mph 3 mph 79 % 0 in
21:27 50.2 °F 43.5 °F 30.5 in North 1 mph 3 mph 78 % 0 in
21:37 50.2 °F 43.9 °F 30.5 in Calm   3 mph 79 % 0 in
21:42 49.6 °F 43.3 °F 30.5 in Calm   3 mph 79 % 0 in
21:52 49.3 °F 43.7 °F 30.5 in Calm   1 mph 81 % 0 in
22:02 48.4 °F 43.2 °F 30.5 in WNW 1 mph 1 mph 82 % 0 in
22:12 48.2 °F 43 °F 30.5 in WNW 1 mph 2 mph 82 % 0 in
22:17 47.5 °F 42.8 °F 30.5 in Calm   2 mph 84 % 0 in
22:22 47.5 °F 43.2 °F 30.5 in Calm   1 mph 85 % 0 in
22:32 47.8 °F 43.2 °F 30.5 in North 1 mph 1 mph 84 % 0 in
22:37 47.7 °F 43 °F 30.5 in North 1 mph 2 mph 84 % 0 in
22:42 47.7 °F 43 °F 30.5 in Calm   2 mph 84 % 0 in
22:47 47.8 °F 43.2 °F 30.5 in Calm   2 mph 84 % 0 in
22:52 47.3 °F 42.4 °F 30.5 in Calm   2 mph 83 % 0 in
23:02 46.8 °F 42.3 °F 30.5 in Calm   1 mph 84 % 0 in
23:12 46.2 °F 42.3 °F 30.5 in Calm   1 mph 86 % 0 in
23:22 45.7 °F 41.7 °F 30.5 in WNW 1 mph 1 mph 86 % 0 in
23:32 45.7 °F 42.6 °F 30.5 in Calm   2 mph 89 % 0 in
23:37 45.9 °F 42.8 °F 30.5 in Calm   2 mph 89 % 0 in
23:42 45.9 °F 42.4 °F 30.5 in Calm   2 mph 88 % 0 in
23:47 45.9 °F 42.8 °F 30.5 in Calm   1 mph 89 % 0 in
23:52 45.7 °F 42.6 °F 30.5 in WNW 1 mph 1 mph 89 % 0 in
Meteo18
Compliments of Weather Underground - 4 mb

Script developed by  Jim McMurry - jmcmurry@mwt.net Adapted for the template by  Wim van der Kuil - Leuven-Template.eu

You find our weather info also at:

European Weather Network

Weather Underground

Equipment we use:

Weather-station
Davis Vue

Weather-program
Meteohub

Weather-server
Raspberry PI 2 B+

Provider
1 and 1

Davis Vue

Meteohub

Raspberry PI 2 B+

1 and 1